Погода в Гафурове

Россия / Республика Башкортостан     54°31′27″N   53°41′44″E
В апреле 2022 года жителям России запретили посещать сайт meteo.paraplan.net по решению Генеральной прокуратуры. Аудитория сайта уменьшилась в 10 раз. Владельцы сайта не видят смысла в поддержке погодного сервера в таких условиях. Сайт будет закрыт в октябре.
темп.,
°C
ветер,
м/с
пор.,
м/с
влажн.,
%
обл.,
%
осадки,
мм/ч
давл.,
гПа
погр.,
м
30 сентября, пт
пт3023:00+5юв51091100 1.8 1019458
02:00+4вюв4991100 0.6 1020452
05:00+4вюв4891100 0.6 1021438
08:00+4юв4891100 0.0 1023409
11:00+5юв4687100 0.1 1024421
14:00+6вюв4686100 0.0 1025495
17:00+6вюв5785100 0.0 1026495
20:00+5вюв4888100 0.0 1027387
1 октября, сб
сб123:00+5юв4886100 0.0 1027360
02:00+5вюв368496 0.0 1027302
05:00+4юв2589100 0.0 1028164
08:00+4юв2689100 0.0 1028204
11:00+8ююв476693 0.0 1027470
14:00+13ююв575080 0.0 1026802
17:00+12ююв57505 0.0 1026795
20:00+8ююв39645 0.0 1026223
2 октября, вс
вс223:00+6ююв38655 0.0 1025193
02:00+6ююв37695 0.0 1024157
05:00+6ююв310675 0.0 1023210
08:00+7ю4136633 0.0 1022319
11:00+12ю7134898 0.0 1022522
14:00+15ю7124253 0.0 1020700
17:00+15ю7124625 0.0 1020807
20:00+13ю6165457 0.0 1020538
3 октября, пн
пн323:00+13ю71655100 0.0 1019492
02:00+12ю7165595 0.1 1019510
05:00+11ю6155276 0.1 1019468
08:00+11ю71556100 0.0 1020453
11:00+13ю6155997 0.1 1020517
14:00+13ю6145099 0.0 1021558
17:00+17ю6114387 0.0 1021952
20:00+14ю5125020 0.0 1023349
4 октября, вт
вт423:00+13ю5144458 0.0 1025413
02:00+12ю5144249 0.0 1025373
05:00+10ю4134310 0.0 1026350
08:00+9ю413455 0.0 1028354
11:00+13ю612355 0.0 1028651
14:00+16ююв7103029 0.0 10281051
17:00+15ююв6931100 0.0 10281132
20:00+11ююв3937100 0.0 1030232